CSHVD LPPT-LPCS

Flight info

Callsign CSHVD
Flight time 0h -10m
Altitude 1000
Route RALIS TR ENACI
Aircraft H269/L-VGD/C

Departure

Time 2026-04-29 07:19
Airport Lisbon Humberto Delgado Airport (LPPT)

Arrival

Time 2026-04-29 07:08
Airport Cascais Airport (LPCS)
Time Latitude Longitude Altitude Speed Heading
2026-04-29 06:56 38.77799 -9.13254 377 ft 0 kts 78°
2026-04-29 07:04 38.77799 -9.13251 377 ft 0 kts 77°
2026-04-29 07:07 38.77800 -9.13255 385 ft 1 kts 106°
2026-04-29 07:08 38.77800 -9.13294 396 ft 9 kts 254°
2026-04-29 07:08 38.77773 -9.13345 391 ft 5 kts 197°
2026-04-29 07:08 38.77718 -9.13355 394 ft 10 kts 217°
2026-04-29 07:08 38.77637 -9.13427 419 ft 15 kts 273°
2026-04-29 07:09 38.77766 -9.13487 411 ft 20 kts 349°
2026-04-29 07:09 38.77894 -9.13528 396 ft 15 kts
2026-04-29 07:09 38.77949 -9.13541 389 ft 1 kts 357°
2026-04-29 07:09 38.77957 -9.13538 389 ft 0 kts 355°
2026-04-29 07:10 38.77964 -9.13540 395 ft 4 kts
2026-04-29 07:10 38.78010 -9.13546 399 ft 7 kts
2026-04-29 07:10 38.78083 -9.13564 398 ft 13 kts 320°
2026-04-29 07:10 38.78056 -9.13646 441 ft 30 kts 213°
2026-04-29 07:11 38.77769 -9.13809 503 ft 52 kts 209°
2026-04-29 07:11 38.77432 -9.13935 610 ft 52 kts 180°
2026-04-29 07:11 38.77251 -9.13510 701 ft 59 kts 92°
2026-04-29 07:11 38.77293 -9.12955 788 ft 66 kts 82°
2026-04-29 07:12 38.77415 -9.12369 866 ft 70 kts 76°
2026-04-29 07:12 38.77551 -9.11734 857 ft 77 kts 80°
2026-04-29 07:12 38.77682 -9.11058 840 ft 79 kts 75°
2026-04-29 07:12 38.77866 -9.10360 750 ft 81 kts 75°
2026-04-29 07:13 38.77979 -9.09671 704 ft 81 kts 89°
2026-04-29 07:13 38.77901 -9.09024 731 ft 69 kts 139°
2026-04-29 07:13 38.77467 -9.08840 720 ft 67 kts 187°
2026-04-29 07:13 38.77059 -9.08913 854 ft 55 kts 205°
2026-04-29 07:14 38.76620 -9.09036 768 ft 73 kts 188°
2026-04-29 07:14 38.76152 -9.09138 842 ft 67 kts 190°
2026-04-29 07:14 38.75659 -9.09199 831 ft 70 kts 182°
2026-04-29 07:14 38.75172 -9.09270 826 ft 72 kts 188°
2026-04-29 07:15 38.74676 -9.09383 784 ft 74 kts 189°
2026-04-29 07:15 38.74192 -9.09595 765 ft 69 kts 204°
2026-04-29 07:15 38.73792 -9.09906 761 ft 70 kts 210°
2026-04-29 07:15 38.73369 -9.10237 740 ft 69 kts 206°
2026-04-29 07:16 38.72963 -9.10523 777 ft 65 kts 207°
2026-04-29 07:16 38.72570 -9.10829 807 ft 66 kts 213°
2026-04-29 07:16 38.72176 -9.11169 797 ft 68 kts 211°
2026-04-29 07:16 38.71766 -9.11496 784 ft 70 kts 209°
2026-04-29 07:17 38.71343 -9.11816 744 ft 71 kts 208°
2026-04-29 07:17 38.70946 -9.12165 751 ft 68 kts 217°
2026-04-29 07:17 38.70624 -9.12578 813 ft 62 kts 227°
2026-04-29 07:17 38.70372 -9.13022 905 ft 58 kts 237°
2026-04-29 07:18 38.70141 -9.13472 932 ft 68 kts 228°
2026-04-29 07:18 38.69815 -9.13943 888 ft 71 kts 221°
2026-04-29 07:18 38.69453 -9.14378 839 ft 72 kts 221°
2026-04-29 07:18 38.69139 -9.14815 898 ft 64 kts 227°
2026-04-29 07:19 38.68849 -9.15261 924 ft 64 kts 227°
2026-04-29 07:19 38.68567 -9.15702 978 ft 64 kts 225°
2026-04-29 07:19 38.68205 -9.16066 969 ft 70 kts 206°
2026-04-29 07:19 38.67713 -9.16316 833 ft 78 kts 196°
2026-04-29 07:20 38.67241 -9.16579 814 ft 69 kts 205°
2026-04-29 07:20 38.66951 -9.16999 873 ft 61 kts 248°
2026-04-29 07:20 38.67033 -9.17541 921 ft 65 kts 289°
2026-04-29 07:20 38.67309 -9.17975 983 ft 67 kts 299°
2026-04-29 07:21 38.67567 -9.18464 987 ft 57 kts 304°
2026-04-29 07:21 38.67850 -9.18895 898 ft 68 kts 309°
2026-04-29 07:21 38.68146 -9.19341 885 ft 63 kts 309°
2026-04-29 07:21 38.68389 -9.19794 826 ft 64 kts 298°
2026-04-29 07:22 38.68626 -9.20276 763 ft 63 kts 303°
2026-04-29 07:22 38.68828 -9.20780 688 ft 64 kts 292°
2026-04-29 07:22 38.69016 -9.21303 607 ft 64 kts 295°
2026-04-29 07:22 38.69136 -9.21824 565 ft 57 kts 283°
2026-04-29 07:23 38.69289 -9.22286 450 ft 55 kts 300°
2026-04-29 07:23 38.69462 -9.22687 352 ft 49 kts 298°
2026-04-29 07:23 38.69584 -9.23031 268 ft 36 kts 284°
2026-04-29 07:23 38.69663 -9.23287 165 ft 24 kts 262°
2026-04-29 07:24 38.69638 -9.23440 101 ft 17 kts 238°
2026-04-29 07:24 38.69593 -9.23505 69 ft 7 kts 240°
2026-04-29 07:24 38.69572 -9.23540 24 ft 4 kts 241°
2026-04-29 07:24 38.69561 -9.23558 5 ft 0 kts 242°
2026-04-29 07:25 38.69560 -9.23559 4 ft 0 kts 241°
2026-04-29 07:25 38.69561 -9.23563 9 ft 3 kts 270°
2026-04-29 07:25 38.69587 -9.23680 147 ft 24 kts 280°
2026-04-29 07:25 38.69728 -9.23934 326 ft 44 kts 297°
2026-04-29 07:26 38.69927 -9.24333 433 ft 58 kts 291°
2026-04-29 07:26 38.70143 -9.24796 528 ft 64 kts 291°
2026-04-29 07:26 38.70381 -9.25288 618 ft 64 kts 300°
2026-04-29 07:26 38.70576 -9.25779 688 ft 65 kts 283°
2026-04-29 07:27 38.70762 -9.26283 788 ft 59 kts 291°
2026-04-29 07:27 38.70842 -9.26797 846 ft 63 kts 259°
2026-04-29 07:27 38.70799 -9.27349 899 ft 68 kts 259°
2026-04-29 07:27 38.70714 -9.27957 885 ft 66 kts 261°
2026-04-29 07:28 38.70645 -9.28545 894 ft 67 kts 262°
2026-04-29 07:28 38.70598 -9.29076 793 ft 52 kts 268°
2026-04-29 07:28 38.70541 -9.29496 596 ft 43 kts 276°
2026-04-29 07:28 38.70622 -9.29877 701 ft 48 kts 286°
2026-04-29 07:29 38.70700 -9.30301 827 ft 48 kts 270°
2026-04-29 07:29 38.70777 -9.30736 888 ft 60 kts 276°
2026-04-29 07:29 38.70852 -9.31307 788 ft 69 kts 275°
2026-04-29 07:29 38.70896 -9.31894 724 ft 63 kts 268°
2026-04-29 07:30 38.70948 -9.32401 781 ft 49 kts 272°
2026-04-29 07:30 38.70993 -9.32822 814 ft 54 kts 265°
2026-04-29 07:30 38.71003 -9.33333 754 ft 63 kts 274°
2026-04-29 07:31 38.71518 -9.34118 838 ft 57 kts 312°
2026-04-29 07:31 38.71805 -9.34504 828 ft 64 kts 299°
2026-04-29 07:31 38.72183 -9.34801 776 ft 68 kts 354°
2026-04-29 07:31 38.72623 -9.34756 840 ft 56 kts
2026-04-29 07:32 38.73013 -9.34682 877 ft 61 kts 358°
2026-04-29 07:32 38.73450 -9.34685 879 ft 61 kts 348°
2026-04-29 07:32 38.73867 -9.34781 864 ft 63 kts 332°
2026-04-29 07:32 38.74197 -9.35140 752 ft 67 kts 278°
2026-04-29 07:33 38.74081 -9.35627 722 ft 58 kts 222°
2026-04-29 07:33 38.73783 -9.35935 662 ft 53 kts 199°
2026-04-29 07:33 38.73414 -9.35879 563 ft 53 kts 175°
2026-04-29 07:33 38.73079 -9.35715 455 ft 39 kts 176°
2026-04-29 07:34 38.72847 -9.35643 367 ft 27 kts 174°
2026-04-29 07:34 38.72702 -9.35596 365 ft 27 kts 168°
2026-04-29 07:34 38.72556 -9.35543 344 ft 16 kts 222°
2026-04-29 07:34 38.72532 -9.35614 334 ft 5 kts 277°
2026-04-29 07:35 38.72569 -9.35650 328 ft 7 kts 350°
2026-04-29 07:35 38.72603 -9.35665 327 ft 2 kts 350°
2026-04-29 07:35 38.72604 -9.35665 322 ft 0 kts 349°